Time,TemperatureF,DewpointF,PressureIn,WindDirection,WindDirectionDegrees,WindSpeedMPH,WindSpeedGustMPH,Humidity,HourlyPrecipIn,Conditions,Clouds,dailyrainin,SoftwareType,DateUTC
2013-05-02 00:02:00,65.7,56.0,30.18,East,94,0.0,1.0,71,0.00,,,0.00,weatherlink.com 1.10,2013-05-02 04:02:00,
2013-05-02 00:17:00,66.0,56.0,30.18,East,89,0.0,1.0,71,0.00,,,0.00,weatherlink.com 1.10,2013-05-02 04:17:00,
2013-05-02 00:32:00,65.6,56.0,30.18,East,91,0.0,1.0,71,0.00,,,0.00,weatherlink.com 1.10,2013-05-02 04:32:00,
2013-05-02 00:47:00,64.6,56.0,30.17,East,90,0.0,0.0,74,0.00,,,0.00,weatherlink.com 1.10,2013-05-02 04:47:00,
2013-05-02 01:02:00,64.3,56.0,30.17,East,90,0.0,1.0,74,0.00,,,0.00,weatherlink.com 1.10,2013-05-02 05:02:00,
2013-05-02 01:17:00,63.7,56.0,30.18,ESE,117,0.0,0.0,75,0.00,,,0.00,weatherlink.com 1.10,2013-05-02 05:17:00,
2013-05-02 01:33:00,63.3,56.0,30.18,ESE,117,0.0,0.0,76,0.00,,,0.00,weatherlink.com 1.10,2013-05-02 05:33:00,
2013-05-02 01:48:00,63.0,56.0,30.17,SSE,151,0.0,2.0,77,0.00,,,0.00,weatherlink.com 1.10,2013-05-02 05:48:00,
2013-05-02 02:02:00,63.2,56.0,30.17,SE,139,0.0,1.0,77,0.00,,,0.00,weatherlink.com 1.10,2013-05-02 06:02:00,
2013-05-02 02:17:00,63.2,56.0,30.17,SSE,150,0.0,1.0,77,0.00,,,0.00,weatherlink.com 1.10,2013-05-02 06:17:00,
2013-05-02 02:32:00,63.1,56.0,30.17,SE,129,0.0,1.0,77,0.00,,,0.00,weatherlink.com 1.10,2013-05-02 06:32:00,
2013-05-02 02:48:00,62.9,56.0,30.17,SSE,167,0.0,1.0,78,0.00,,,0.00,weatherlink.com 1.10,2013-05-02 06:48:00,
2013-05-02 03:03:00,62.7,56.0,30.17,SE,134,0.0,3.0,80,0.00,,,0.00,weatherlink.com 1.10,2013-05-02 07:03:00,
2013-05-02 03:17:00,62.2,56.0,30.16,SE,127,0.0,1.0,80,0.00,,,0.00,weatherlink.com 1.10,2013-05-02 07:17:00,
2013-05-02 03:33:00,61.9,56.0,30.16,SE,134,0.0,1.0,81,0.00,,,0.00,weatherlink.com 1.10,2013-05-02 07:33:00,
2013-05-02 03:48:00,61.4,56.0,30.16,ESE,123,0.0,1.0,83,0.00,,,0.00,weatherlink.com 1.10,2013-05-02 07:48:00,
2013-05-02 04:03:00,60.8,56.0,30.17,SE,129,0.0,1.0,83,0.00,,,0.00,weatherlink.com 1.10,2013-05-02 08:03:00,
2013-05-02 04:17:00,60.5,56.0,30.17,SE,135,0.0,2.0,84,0.00,,,0.00,weatherlink.com 1.10,2013-05-02 08:17:00,
2013-05-02 04:32:00,60.5,56.0,30.17,ESE,107,0.0,2.0,84,0.00,,,0.00,weatherlink.com 1.10,2013-05-02 08:32:00,
2013-05-02 04:48:00,60.4,56.0,30.17,ESE,121,0.0,1.0,84,0.00,,,0.00,weatherlink.com 1.10,2013-05-02 08:48:00,
2013-05-02 05:03:00,59.8,55.0,30.17,ESE,122,0.0,1.0,85,0.00,,,0.00,weatherlink.com 1.10,2013-05-02 09:03:00,
2013-05-02 05:17:00,59.7,55.0,30.16,SSE,151,0.0,2.0,85,0.00,,,0.00,weatherlink.com 1.10,2013-05-02 09:17:00,
2013-05-02 05:32:00,59.3,55.0,30.16,SE,129,0.0,1.0,85,0.00,,,0.00,weatherlink.com 1.10,2013-05-02 09:32:00,
2013-05-02 05:47:00,59.3,55.0,30.16,SSE,149,0.0,3.0,85,0.00,,,0.00,weatherlink.com 1.10,2013-05-02 09:47:00,
2013-05-02 06:02:00,58.8,55.0,30.16,SE,143,0.0,1.0,86,0.00,,,0.00,weatherlink.com 1.10,2013-05-02 10:02:00,
2013-05-02 06:17:00,58.4,55.0,30.16,SE,134,0.0,1.0,87,0.00,,,0.00,weatherlink.com 1.10,2013-05-02 10:17:00,
2013-05-02 06:32:00,57.9,54.0,30.16,ESE,118,1.0,2.0,88,0.00,,,0.00,weatherlink.com 1.10,2013-05-02 10:32:00,
2013-05-02 06:47:00,57.9,54.0,30.17,ESE,122,0.0,1.0,88,0.00,,,0.00,weatherlink.com 1.10,2013-05-02 10:47:00,
2013-05-02 07:02:00,58.5,54.0,30.17,SSE,148,0.0,0.0,86,0.00,,,0.00,weatherlink.com 1.10,2013-05-02 11:02:00,
2013-05-02 07:17:00,58.4,54.0,30.17,WNW,295,0.0,1.0,86,0.00,,,0.00,weatherlink.com 1.10,2013-05-02 11:17:00,
2013-05-02 07:32:00,59.0,55.0,30.18,ESE,115,2.0,2.0,85,0.00,,,0.00,weatherlink.com 1.10,2013-05-02 11:32:00,
2013-05-02 07:47:00,60.5,55.0,30.18,ESE,120,0.0,3.0,82,0.00,,,0.00,weatherlink.com 1.10,2013-05-02 11:47:00,
2013-05-02 08:02:00,61.8,55.0,30.18,SSE,168,2.0,6.0,79,0.00,,,0.00,weatherlink.com 1.10,2013-05-02 12:02:00,
2013-05-02 08:17:00,62.9,56.0,30.18,SSW,195,0.0,5.0,77,0.00,,,0.00,weatherlink.com 1.10,2013-05-02 12:17:00,
2013-05-02 08:33:00,63.7,56.0,30.18,NNW,340,1.0,8.0,75,0.00,,,0.00,weatherlink.com 1.10,2013-05-02 12:33:00,
2013-05-02 08:48:00,65.5,56.0,30.19,ESE,112,0.0,4.0,71,0.00,,,0.00,weatherlink.com 1.10,2013-05-02 12:48:00,
2013-05-02 09:03:00,66.9,56.0,30.19,SW,219,3.0,6.0,68,0.00,,,0.00,weatherlink.com 1.10,2013-05-02 13:03:00,
2013-05-02 09:18:00,67.9,56.0,30.19,SE,142,3.0,6.0,66,0.00,,,0.00,weatherlink.com 1.10,2013-05-02 13:18:00,
2013-05-02 09:33:00,68.9,57.0,30.19,SSW,208,2.0,6.0,66,0.00,,,0.00,weatherlink.com 1.10,2013-05-02 13:33:00,
2013-05-02 09:48:00,69.5,58.0,30.19,SE,135,2.0,7.0,66,0.00,,,0.00,weatherlink.com 1.10,2013-05-02 13:48:00,
2013-05-02 10:03:00,70.3,57.0,30.19,WSW,248,5.0,7.0,63,0.00,,,0.00,weatherlink.com 1.10,2013-05-02 14:03:00,
2013-05-02 10:18:00,71.2,57.0,30.18,WSW,239,3.0,7.0,62,0.00,,,0.00,weatherlink.com 1.10,2013-05-02 14:18:00,
2013-05-02 10:33:00,72.4,58.0,30.19,SSW,210,4.0,9.0,61,0.00,,,0.00,weatherlink.com 1.10,2013-05-02 14:33:00,
2013-05-02 11:03:00,74.0,57.0,30.18,West,259,0.0,7.0,56,0.00,,,0.00,weatherlink.com 1.10,2013-05-02 15:03:00,
2013-05-02 11:18:00,75.1,57.0,30.18,SE,129,1.0,9.0,54,0.00,,,0.00,weatherlink.com 1.10,2013-05-02 15:18:00,
2013-05-02 11:33:00,76.4,58.0,30.18,WSW,250,2.0,4.0,53,0.00,,,0.00,weatherlink.com 1.10,2013-05-02 15:33:00,
2013-05-02 11:48:00,77.5,58.0,30.18,WSW,255,1.0,5.0,51,0.00,,,0.00,weatherlink.com 1.10,2013-05-02 15:48:00,
2013-05-02 12:03:00,78.0,57.0,30.17,South,177,1.0,5.0,49,0.00,,,0.00,weatherlink.com 1.10,2013-05-02 16:03:00,
2013-05-02 12:18:00,78.7,58.0,30.17,SE,128,2.0,6.0,49,0.00,,,0.00,weatherlink.com 1.10,2013-05-02 16:18:00,
2013-05-02 12:33:00,79.0,56.0,30.16,SSE,160,4.0,9.0,46,0.00,,,0.00,weatherlink.com 1.10,2013-05-02 16:33:00,
2013-05-02 12:48:00,79.4,56.0,30.16,ESE,122,4.0,7.0,45,0.00,,,0.00,weatherlink.com 1.10,2013-05-02 16:48:00,
2013-05-02 13:03:00,79.8,57.0,30.15,WSW,251,2.0,9.0,45,0.00,,,0.00,weatherlink.com 1.10,2013-05-02 17:03:00,
2013-05-02 13:18:00,80.2,57.0,30.14,WSW,256,1.0,8.0,45,0.00,,,0.00,weatherlink.com 1.10,2013-05-02 17:18:00,
2013-05-02 13:33:00,80.9,57.0,30.14,SE,135,2.0,8.0,44,0.00,,,0.00,weatherlink.com 1.10,2013-05-02 17:33:00,
2013-05-02 13:48:00,80.8,56.0,30.14,ESE,109,2.0,7.0,42,0.00,,,0.00,weatherlink.com 1.10,2013-05-02 17:48:00,
2013-05-02 14:03:00,80.1,57.0,30.14,SW,235,7.0,9.0,45,0.00,,,0.00,weatherlink.com 1.10,2013-05-02 18:03:00,
2013-05-02 14:18:00,80.8,55.0,30.13,SE,135,3.0,10.0,41,0.00,,,0.00,weatherlink.com 1.10,2013-05-02 18:18:00,
2013-05-02 14:34:00,81.3,54.0,30.13,SE,139,3.0,10.0,39,0.00,,,0.00,weatherlink.com 1.10,2013-05-02 18:34:00,
2013-05-02 14:49:00,81.2,57.0,30.12,ESE,116,0.0,8.0,43,0.00,,,0.00,weatherlink.com 1.10,2013-05-02 18:49:00,
2013-05-02 15:04:00,82.5,54.0,30.12,SSW,204,6.0,9.0,37,0.00,,,0.00,weatherlink.com 1.10,2013-05-02 19:04:00,
2013-05-02 15:19:00,81.6,56.0,30.12,WSW,256,5.0,11.0,41,0.00,,,0.00,weatherlink.com 1.10,2013-05-02 19:19:00,
2013-05-02 15:34:00,80.9,54.0,30.12,SE,131,11.0,11.0,40,0.00,,,0.00,weatherlink.com 1.10,2013-05-02 19:34:00,
2013-05-02 15:49:00,79.7,55.0,30.11,SSE,150,4.0,8.0,43,0.00,,,0.00,weatherlink.com 1.10,2013-05-02 19:49:00,
2013-05-02 16:04:00,80.0,54.0,30.10,South,187,3.0,8.0,41,0.00,,,0.00,weatherlink.com 1.10,2013-05-02 20:04:00,
2013-05-02 16:19:00,79.7,56.0,30.10,South,171,3.0,9.0,44,0.00,,,0.00,weatherlink.com 1.10,2013-05-02 20:19:00,
2013-05-02 16:34:00,79.6,55.0,30.09,SE,136,3.0,7.0,43,0.00,,,0.00,weatherlink.com 1.10,2013-05-02 20:34:00,
2013-05-02 16:49:00,79.2,55.0,30.09,ESE,123,3.0,10.0,43,0.00,,,0.00,weatherlink.com 1.10,2013-05-02 20:49:00,
2013-05-02 17:04:00,78.6,54.0,30.09,SSE,156,4.0,10.0,43,0.00,,,0.00,weatherlink.com 1.10,2013-05-02 21:04:00,
2013-05-02 17:19:00,78.4,54.0,30.09,South,169,2.0,10.0,43,0.00,,,0.00,weatherlink.com 1.10,2013-05-02 21:19:00,
2013-05-02 17:34:00,78.6,54.0,30.08,SSE,162,2.0,7.0,43,0.00,,,0.00,weatherlink.com 1.10,2013-05-02 21:34:00,
2013-05-02 17:49:00,78.8,55.0,30.08,West,281,2.0,5.0,44,0.00,,,0.00,weatherlink.com 1.10,2013-05-02 21:49:00,
2013-05-02 18:04:00,78.0,56.0,30.08,West,266,2.0,6.0,46,0.00,,,0.00,weatherlink.com 1.10,2013-05-02 22:04:00,
2013-05-02 18:19:00,74.4,55.0,30.08,NW,319,4.0,4.0,51,0.00,,,0.00,weatherlink.com 1.10,2013-05-02 22:19:00,
2013-05-02 18:34:00,71.7,55.0,30.08,NW,324,4.0,7.0,56,0.00,,,0.00,weatherlink.com 1.10,2013-05-02 22:34:00,
2013-05-02 18:49:00,71.1,54.0,30.08,NNW,333,4.0,4.0,55,0.00,,,0.00,weatherlink.com 1.10,2013-05-02 22:49:00,
2013-05-02 19:04:00,70.8,54.0,30.08,WNW,287,2.0,4.0,55,0.00,,,0.00,weatherlink.com 1.10,2013-05-02 23:04:00,
2013-05-02 19:19:00,70.4,55.0,30.08,NNW,328,0.0,3.0,58,0.00,,,0.00,weatherlink.com 1.10,2013-05-02 23:19:00,
2013-05-02 19:34:00,70.0,55.0,30.08,WSW,249,4.0,4.0,59,0.00,,,0.00,weatherlink.com 1.10,2013-05-02 23:34:00,
2013-05-02 19:49:00,69.0,53.0,30.08,NNW,333,1.0,3.0,58,0.00,,,0.00,weatherlink.com 1.10,2013-05-02 23:49:00,
2013-05-02 20:04:00,67.9,53.0,30.08,NNW,340,2.0,3.0,60,0.00,,,0.00,weatherlink.com 1.10,2013-05-03 00:04:00,
2013-05-02 20:19:00,66.9,54.0,30.09,NNW,330,0.0,1.0,63,0.00,,,0.00,weatherlink.com 1.10,2013-05-03 00:19:00,
2013-05-02 20:34:00,65.5,53.0,30.09,West,259,1.0,3.0,65,0.00,,,0.00,weatherlink.com 1.10,2013-05-03 00:34:00,
2013-05-02 20:49:00,64.1,53.0,30.09,NNW,335,0.0,2.0,68,0.00,,,0.00,weatherlink.com 1.10,2013-05-03 00:49:00,
2013-05-02 21:04:00,63.0,53.0,30.10,NNW,328,0.0,1.0,69,0.00,,,0.00,weatherlink.com 1.10,2013-05-03 01:04:00,
2013-05-02 21:19:00,62.0,52.0,30.10,NNW,328,0.0,1.0,71,0.00,,,0.00,weatherlink.com 1.10,2013-05-03 01:19:00,
2013-05-02 21:34:00,60.9,52.0,30.10,NNW,329,0.0,0.0,73,0.00,,,0.00,weatherlink.com 1.10,2013-05-03 01:34:00,
2013-05-02 21:49:00,59.9,52.0,30.11,NNW,328,0.0,0.0,75,0.00,,,0.00,weatherlink.com 1.10,2013-05-03 01:49:00,
2013-05-02 22:04:00,59.1,52.0,30.11,NNW,328,0.0,0.0,78,0.00,,,0.00,weatherlink.com 1.10,2013-05-03 02:04:00,
2013-05-02 22:19:00,58.6,52.0,30.11,NNW,328,0.0,0.0,79,0.00,,,0.00,weatherlink.com 1.10,2013-05-03 02:19:00,
2013-05-02 22:34:00,58.3,52.0,30.11,NNW,329,0.0,1.0,80,0.00,,,0.00,weatherlink.com 1.10,2013-05-03 02:34:00,
2013-05-02 22:49:00,57.9,52.0,30.11,NNW,329,0.0,0.0,81,0.00,,,0.00,weatherlink.com 1.10,2013-05-03 02:49:00,
2013-05-02 23:04:00,57.1,51.0,30.11,NNW,328,0.0,0.0,81,0.00,,,0.00,weatherlink.com 1.10,2013-05-03 03:04:00,
2013-05-02 23:19:00,56.7,51.0,30.11,NNW,329,0.0,0.0,82,0.00,,,0.00,weatherlink.com 1.10,2013-05-03 03:19:00,
2013-05-02 23:34:00,56.3,51.0,30.11,NNW,329,0.0,0.0,83,0.00,,,0.00,weatherlink.com 1.10,2013-05-03 03:34:00,
2013-05-02 23:49:00,55.8,50.0,30.11,NNW,329,1.0,-999.0,81,-99.99,,,0.00,weatherlink.com 1.10,2013-05-03 03:49:00,